Weather History for KGEV - April, 2013

Change the Weather History Date:

Friday, April 12, 2013

  Actual Average Record
Temperature  
Mean Temperature 56 °F -  
Max Temperature 62 °F 63 °F 80 °F (1977)
Min Temperature 49 °F 35 °F 16 °F (1989)
Degree Days  
Heating Degree Days 10    
Growing Degree Days 6 (Base 50)    
Moisture  
Dew Point 45 °F    
Average Humidity 66    
Maximum Humidity 93    
Minimum Humidity 30    
Precipitation  
Precipitation 0.78 in - - ()
Sea Level Pressure  
Sea Level Pressure 29.77 in    
Wind  
Wind Speed 12 mph (West)    
Max Wind Speed 28 mph    
Max Gust Speed 36 mph    
Visibility 9 miles    
Events Rain    
Averages and records for this station are not official NWS values.
T = Trace of Precipitation, MM = Missing Value Source: NWS Daily Summary

Daily Weather History Graph

Daily Weather History Graph

Search for Another Location

Airport or City:

Trip Planner

Search our weather history database for the weather conditions in past years. The results will help you decide how hot, cold, wet, or windy it might be!

Date:

Astronomy

Apr. 12, 2013 Rise Set
Actual Time 6:55 AM EDT 7:57 PM EDT
Civil Twilight 6:29 AM EDT 8:23 PM EDT
Nautical Twilight 5:58 AM EDT 8:55 PM EDT
Astronomical Twilight 5:25 AM EDT 9:27 PM EDT
Moon 8:08 AM EDT (4/12) 10:22 PM EDT (4/12)
Length of Visible Light 13h 54m
Length of Day
13h 01m
Waxing Crescent, 5% of the Moon is Illuminated
Apr 12
Waxing Crescent
Apr 18
First Quarter
Apr 25
Full
May 2
Last Quarter
May 9
New

Hourly Weather History & Observations

Time (EDT) Temp. Dew Point Humidity Pressure Visibility Wind Dir Wind Speed Gust Speed Precip Events Conditions
12:15 AM 60.4 °F 58.3 °F 93% 29.78 in 5.0 mi SSE 8.1 mph - 0.01 in Rain Light Rain
12:35 AM 60.8 °F 58.6 °F 93% 29.77 in 7.0 mi SSE 8.1 mph 19.6 mph 0.01 in   Overcast
12:55 AM 61.2 °F 59.0 °F 93% 29.75 in 5.0 mi SSE 8.1 mph 24.2 mph 0.01 in Rain Rain
1:15 AM 61.2 °F 59.0 °F 93% 29.73 in 4.0 mi SSE 15.0 mph 28.8 mph 0.06 in Rain Rain
1:35 AM 61.7 °F 58.6 °F 90% 29.73 in 10.0 mi SSE 10.4 mph 24.2 mph 0.06 in Rain Light Rain
1:55 AM 61.7 °F 59.0 °F 91% 29.77 in 3.0 mi WSW 15.0 mph 23.0 mph 0.12 in Rain Heavy Rain
2:15 AM 56.1 °F 52.5 °F 88% 29.76 in 3.0 mi West 19.6 mph 29.9 mph 0.25 in Rain Heavy Rain
2:35 AM 56.3 °F 52.2 °F 86% 29.75 in 5.0 mi West 10.4 mph 23.0 mph 0.38 in Rain Rain
2:55 AM 56.3 °F 52.2 °F 86% 29.74 in 7.0 mi West 6.9 mph - 0.44 in Rain Heavy Rain
3:15 AM 55.8 °F 52.0 °F 87% 29.75 in 7.0 mi Calm Calm - 0.05 in Rain Rain
3:35 AM 55.9 °F 52.7 °F 89% 29.72 in 5.0 mi WSW 4.6 mph - 0.13 in Rain Rain
3:55 AM 58.1 °F 51.4 °F 78% 29.70 in 10.0 mi SSE 9.2 mph 20.7 mph 0.17 in Rain Light Rain
4:15 AM 55.8 °F 52.3 °F 88% 29.69 in 10.0 mi SSE 6.9 mph - N/A Rain Rain
4:35 AM 56.7 °F 52.7 °F 87% 29.68 in 10.0 mi South 5.8 mph 24.2 mph N/A   Mostly Cloudy
4:55 AM 59.5 °F 51.8 °F 76% 29.68 in 10.0 mi South 11.5 mph 27.6 mph N/A   Mostly Cloudy
5:15 AM 58.6 °F 52.3 °F 80% 29.69 in 10.0 mi South 11.5 mph 27.6 mph N/A   Overcast
5:35 AM 58.3 °F 52.5 °F 81% 29.68 in 10.0 mi South 9.2 mph 21.9 mph N/A   Overcast
5:55 AM 57.9 °F 52.9 °F 83% 29.68 in 10.0 mi South 9.2 mph 24.2 mph N/A Rain Rain
6:15 AM 56.8 °F 53.6 °F 89% 29.68 in 7.0 mi South 8.1 mph - N/A Rain Rain
6:35 AM 56.7 °F 53.8 °F 90% 29.68 in 5.0 mi South 4.6 mph 17.3 mph 0.01 in Rain Rain
6:55 AM 56.3 °F 54.0 °F 92% 29.69 in 10.0 mi SSE 6.9 mph - 0.02 in Rain Light Rain
7:15 AM 56.3 °F 54.3 °F 93% 29.69 in 10.0 mi South 5.8 mph - N/A   Overcast
7:35 AM 56.8 °F 54.5 °F 92% 29.70 in 10.0 mi SSE 3.5 mph - N/A   Overcast
7:55 AM 56.8 °F 54.7 °F 92% 29.70 in 2.5 mi SSE 3.5 mph - N/A Rain Heavy Rain
8:15 AM 58.1 °F 56.1 °F 93% 29.71 in 7.0 mi West 5.8 mph - N/A Rain Light Rain
8:35 AM 58.1 °F 53.6 °F 85% 29.72 in 10.0 mi West 9.2 mph - 0.02 in Rain Light Rain
8:55 AM 58.5 °F 52.7 °F 81% 29.74 in 10.0 mi West 12.7 mph 20.7 mph 0.02 in   Overcast
9:15 AM 58.3 °F 52.3 °F 81% 29.73 in 10.0 mi West 11.5 mph 23.0 mph N/A   Mostly Cloudy
9:35 AM 59.5 °F 52.2 °F 77% 29.73 in 10.0 mi West 19.6 mph 25.3 mph N/A   Scattered Clouds
9:55 AM 58.8 °F 51.3 °F 76% 29.75 in 7.0 mi West 16.1 mph 26.5 mph N/A Rain Light Rain
10:15 AM 60.3 °F 50.9 °F 71% 29.76 in 10.0 mi West 12.7 mph 20.7 mph N/A   Overcast
10:35 AM 59.2 °F 50.0 °F 72% 29.76 in 10.0 mi West 11.5 mph 18.4 mph N/A   Overcast
10:55 AM 58.6 °F 48.9 °F 70% 29.77 in 10.0 mi West 10.4 mph 19.6 mph N/A   Overcast
11:15 AM 58.1 °F 46.6 °F 65% 29.78 in 10.0 mi West 17.3 mph 23.0 mph N/A   Overcast
11:35 AM 59.2 °F 47.1 °F 64% 29.79 in 10.0 mi West 9.2 mph 18.4 mph N/A   Scattered Clouds
11:55 AM 59.4 °F 47.3 °F 64% 29.78 in 10.0 mi West 11.5 mph 18.4 mph N/A   Scattered Clouds
12:15 PM 59.5 °F 46.0 °F 61% 29.77 in 10.0 mi West 18.4 mph 21.9 mph N/A   Clear
12:35 PM 59.7 °F 46.4 °F 61% 29.78 in 10.0 mi West 18.4 mph 21.9 mph N/A   Clear
12:55 PM 60.6 °F 45.3 °F 57% 29.78 in 10.0 mi West 12.7 mph 18.4 mph N/A   Clear
1:15 PM 61.2 °F 45.1 °F 56% 29.78 in 10.0 mi West 15.0 mph 19.6 mph N/A   Clear
1:35 PM 62.4 °F 44.2 °F 51% 29.78 in 10.0 mi West 12.7 mph 21.9 mph N/A   Clear
1:55 PM 62.4 °F 43.2 °F 49% 29.78 in 10.0 mi West 16.1 mph 24.2 mph N/A   Clear
2:15 PM 61.3 °F 43.3 °F 52% 29.78 in 10.0 mi West 13.8 mph 25.3 mph N/A   Clear
2:35 PM 61.0 °F 42.1 °F 50% 29.78 in 10.0 mi West 15.0 mph 20.7 mph N/A   Clear
2:55 PM 61.9 °F 41.9 °F 48% 29.77 in 10.0 mi West 10.4 mph 21.9 mph N/A   Clear
3:15 PM 61.9 °F 40.1 °F 45% 29.77 in 10.0 mi West 21.9 mph 26.5 mph N/A   Clear
3:35 PM 61.0 °F 37.6 °F 42% 29.76 in 10.0 mi West 21.9 mph 33.4 mph N/A   Clear
3:55 PM 61.0 °F 35.8 °F 39% 29.76 in 10.0 mi WNW 26.5 mph 33.4 mph N/A   Clear
4:15 PM 61.0 °F 32.5 °F 34% 29.76 in 10.0 mi West 27.6 mph 34.5 mph N/A   Clear
4:35 PM 60.1 °F 32.5 °F 35% 29.76 in 10.0 mi West 25.3 mph 35.7 mph N/A   Clear
5:15 PM 61.0 °F 29.1 °F 30% 29.78 in 10.0 mi West 18.4 mph 25.3 mph N/A   Clear
5:35 PM 60.4 °F 29.7 °F 31% 29.79 in 10.0 mi West 16.1 mph 27.6 mph N/A   Clear
5:55 PM 60.3 °F 31.1 °F 33% 29.79 in 10.0 mi WNW 20.7 mph 24.2 mph N/A   Clear
6:15 PM 59.0 °F 32.5 °F 37% 29.79 in 10.0 mi West 19.6 mph 31.1 mph N/A   Clear
6:35 PM 58.6 °F 31.8 °F 36% 29.79 in 10.0 mi West 20.7 mph 31.1 mph N/A   Clear
6:55 PM 57.7 °F 32.7 °F 39% 29.80 in 10.0 mi West 12.7 mph 25.3 mph N/A   Clear
7:15 PM 56.5 °F 34.2 °F 43% 29.79 in 10.0 mi West 17.3 mph 23.0 mph N/A   Clear
7:35 PM 55.6 °F 33.3 °F 43% 29.80 in 10.0 mi West 16.1 mph 21.9 mph N/A   Clear
7:55 PM 54.7 °F 33.8 °F 45% 29.80 in 10.0 mi West 16.1 mph 23.0 mph N/A   Clear
8:15 PM 53.2 °F 34.7 °F 49% 29.80 in 10.0 mi WNW 11.5 mph 19.6 mph N/A   Clear
8:35 PM 52.7 °F 35.2 °F 52% 29.81 in 10.0 mi WNW 18.4 mph 25.3 mph N/A   Clear
8:55 PM 51.8 °F 35.1 °F 53% 29.81 in 10.0 mi NW 15.0 mph 26.5 mph N/A   Clear
9:15 PM 51.3 °F 35.1 °F 54% 29.82 in 10.0 mi NW 11.5 mph 17.3 mph N/A   Clear
9:35 PM 50.9 °F 35.1 °F 55% 29.84 in 10.0 mi WNW 11.5 mph 23.0 mph N/A   Clear
9:55 PM 50.9 °F 35.2 °F 55% 29.86 in 10.0 mi WNW 17.3 mph 27.6 mph N/A   Clear
10:15 PM 50.2 °F 35.1 °F 56% 29.86 in 10.0 mi NW 10.4 mph 18.4 mph N/A   Clear
10:35 PM 50.2 °F 34.7 °F 55% 29.88 in 10.0 mi NW 11.5 mph 23.0 mph N/A   Clear
10:55 PM 50.0 °F 34.2 °F 55% 29.89 in 10.0 mi WNW 11.5 mph 21.9 mph N/A   Clear
11:15 PM 49.5 °F 33.1 °F 53% 29.87 in 10.0 mi WNW 20.7 mph 27.6 mph N/A   Clear
11:35 PM 49.5 °F 31.8 °F 51% 29.88 in 10.0 mi WNW 11.5 mph 28.8 mph N/A   Clear
11:55 PM 49.3 °F 31.5 °F 50% 29.88 in 10.0 mi NW 13.8 mph 32.2 mph N/A   Clear